sat.trackr.live / text

‹ back to catalog

BRISAT

NORAD 41591 · 2016-039A

PAYLOAD ACTIVE UNKNOWN

§ Identity

Operator
Country
INDO
Launch date
2016-06-18
Launch site
FRGUI
Launch vehicle
Mass (kg)
RCS (m²)
9.47

Purposes: comms

External: N2YO · Heavens-Above · Gunter

§ Orbital elements

Epoch: 2026-05-24T21:05:38.838336Z

Period
1,436.10 min
Inclination
0.0157°
Eccentricity
0.0002061
Mean motion
1.00271571 rev/d
Perigee alt
35,778.0 km
Apogee alt
35,795.3 km
Semi-major
42,164.8 km
B*
0.0000e+0
RAAN
290.6875°
Arg perigee
127.0684°
Mean anomaly
291.6268°
Rev number
3,637

§ Raw data

BRISAT1 41591U 16039A   26144.87892174 -.00000200  00000+0  00000+0 0  99932 41591   0.0157 290.6875 0002061 127.0684 291.6268  1.00271571 36376

JSON: /api/v1/satellites/41591 · /tle

For live sub-satellite position, see the globe view (requires WebGL).

§ Visibility from observer

Set your observer location to see the next 7 days of passes ≥ 10°. The values pass through the URL so the page stays shareable.

No JS? Fill the form by hand. The geolocation button needs JavaScript.